User: anonymous   Login
Location: Unspecified
(0.0000°N, 0.0000°E)
Time: 22:41:03
(UTC+01:00)
Language:

Cosmos 2251 - Orbit

View from above orbital plane
View from above orbital plane
View from above satellite
View from above satellite

Ground track
Ground track

The orbit data is extracted from the following two-line orbital elements,

1 22675U 93036A   14355.21841353  .00000215  00000-0  88976-4 0  4319
2 22675 074.0405 074.8706 0024296 052.7417 014.2964 14.32379856123881
Epoch (UTC): 21 December 2014 05:14:30
Eccentricity: 0.0024296
inclination: 74.0405°
perigee height: 766 km
apogee height: 801 km
right ascension of ascending node: 74.8706°
argument of perigee: 52.7417°
revolutions per day: 14.32379856
mean anomaly at epoch: 14.2964°
orbit number at epoch: 12388

The dashed part of the orbit path shows where the satellite is in the earth's shadow,  

DLR